Meteopurmerend
purmerend
Purmerend - Baaienwijk



My webcam  My webcam


Onweer radar Meer informatie blitzortung!


Regen radar Meer informatie rain snow radar


Bezoek onze andere website:

CandyAppleRed WebdesignWebdesign Purmerend Candy Apple Red

MeteopurmerendBlog

Template documentation
and downloads



Het weer levert geen direct gevaar op.    Er zijn geen waarschuwingen afgegeven.

15 daagse weersverwachting 0.000N 0.000E

  • Overzicht
  • Per uur
  • 15 dagen
  • Extra
  • Vergelijk
  • Kaarten
  • Dagkaart
  • Meer »
  • Info
  • Statistieken
  • Directe link
    Temp 6h Neerslag Wind  
 04:39     15:54    Daglengte: 11:15 Morgen
00:00
10°
 
3
06:00
10°
 
3
12:00
16°
 
4
18:00
11°
 
4
 04:42     15:51    Daglengte: 11:09 Zaterdag 03 Okt
00:00
 
3
06:00
10°
 
4
12:00
16°
 
5
18:00
12°
 
4
 04:44     15:48    Daglengte: 11:04 Zondag 04 Okt
00:00
11°
 
4
06:00
11°
 
5
12:00
14°
 
6
18:00
13°
 
5
Locatie info
Region:
Latitude: 60.4202°N
Longitude: 23.2372°E
0 masl
Temp/Neerslag /Baro Onweer/Dauwpunt
    Temp Baro 1h Neerslag Dauwpunt Wind UV Bewolking  
 04:37     15:57    Daglengte: 11:20 Vandaag
21:00
11°
1019.2 hPa   8.3°
3
Windvlaag: 5.1 m/s
78%
22:00
10°
1019.2 hPa   8.5°
3
Windvlaag: 4.7 m/s
79%
23:00
10°
1019.3 hPa   8.7°
3
Windvlaag: 4 m/s
36%
 04:39     15:54    Daglengte: 11:15 Morgen
00:00
10°
Voelt als: 8.3°
1019.3 hPa   8.7°
3
Windvlaag: 3.7 m/s
24%
01:00
Voelt als: 8.0°
1019.3 hPa   8.6°
3
Windvlaag: 3.9 m/s
47%
02:00
Voelt als: 7.8°
1019.4 hPa   8.3°
3
Windvlaag: 4 m/s
53%
03:00
Voelt als: 7.6°
1019.5 hPa   8.4°
3
Windvlaag: 4.5 m/s
50%
04:00
Voelt als: 7.4°
1019.7 hPa   8.3°
3
Windvlaag: 4.9 m/s
49%
05:00
Voelt als: 7.6°
1020.0 hPa   8.5°
3
Windvlaag: 4.9 m/s
37%
06:00
10°
Voelt als: 8.0°
1020.4 hPa   8.6°
3
Windvlaag: 4.9 m/s
20%
07:00
11°
1020.6 hPa   8.7°
4
Windvlaag: 5.5 m/s
16%
08:00
13°
1020.9 hPa   8.8°
4
Windvlaag: 6.4 m/s
19%
09:00
14°
1021.1 hPa   8.9°
4
Windvlaag: 6.8 m/s
32%
10:00
15°
1021.2 hPa   8.9°
4
Windvlaag: 6.7 m/s
22%
11:00
16°
1021.1 hPa   8.8°
4
Windvlaag: 7 m/s
14%
12:00
16°
1020.9 hPa   8.2°
4
Windvlaag: 7.2 m/s
9%
13:00
16°
1020.8 hPa   7.6°
4
Windvlaag: 7.3 m/s
4%
14:00
16°
1020.9 hPa   7.4°
4
Windvlaag: 7.3 m/s
5%
15:00
15°
1021.0 hPa   7.6°
4
Windvlaag: 6.7 m/s
13%
16:00
13°
1021.1 hPa   7.5°
4
Windvlaag: 6.2 m/s
11%
17:00
12°
1021.5 hPa   7.2°
4
Windvlaag: 5.5 m/s
5%
18:00
11°
1021.8 hPa   7.1°
4
Windvlaag: 5.5 m/s
4%
19:00
11°
1022.1 hPa   7.3°
4
Windvlaag: 5.5 m/s
4%
20:00
11°
1022.2 hPa   7.6°
4
Windvlaag: 5.7 m/s
2%
21:00
10°
1022.3 hPa   7.8°
4
Windvlaag: 5.8 m/s
1%
22:00
10°
1022.3 hPa   7.9°
3
Windvlaag: 5.7 m/s
2%
23:00
10°
Voelt als: 8.1°
1022.1 hPa   8.0°
3
Windvlaag: 5.3 m/s
1%
 04:42     15:51    Daglengte: 11:09 Zaterdag 03 Okt
00:00
Voelt als: 7.7°
1022.0 hPa   7.9°
3
Windvlaag: 4.9 m/s
0%
01:00
Voelt als: 7.6°
1021.9 hPa   7.9°
3
Windvlaag: 4.9 m/s
1%
02:00
Voelt als: 7.3°
1021.8 hPa   7.9°
3
Windvlaag: 4.9 m/s
0%
03:00
Voelt als: 7.0°
1021.6 hPa   7.8°
3
Windvlaag: 4.8 m/s
18%
04:00
Voelt als: 6.7°
1021.5 hPa   7.8°
3
Windvlaag: 5.1 m/s
12%
05:00
Voelt als: 6.8°
1021.5 hPa   7.9°
4
Windvlaag: 5.5 m/s
2%
06:00
10°
Voelt als: 7.5°
1021.3 hPa   8.1°
4
Windvlaag: 5.8 m/s
3%
07:00
11°
1021.4 hPa   8.4°
4
Windvlaag: 6.4 m/s
16%
08:00
13°
1021.4 hPa   8.8°
5
Windvlaag: 7.7 m/s
16%
09:00
14°
1021.4 hPa   9.0°
5
Windvlaag: 8.7 m/s
10%
10:00
15°
1021.3 hPa   8.6°
5
Windvlaag: 9 m/s
15%
11:00
16°
1021.0 hPa   8.2°
5
Windvlaag: 9 m/s
18%
12:00
16°
1020.7 hPa   8.5°
5
Windvlaag: 8.1 m/s
12%
13:00
16°
1020.4 hPa   9.0°
5
Windvlaag: 8.1 m/s
5%
14:00
15°
1020.1 hPa   9.1°
5
Windvlaag: 8.3 m/s
4%
15:00
14°
1020.0 hPa   8.8°
5
Windvlaag: 8 m/s
13%
16:00
13°
1020.0 hPa   8.6°
5
Windvlaag: 8.2 m/s
6%
17:00
12°
1020.1 hPa   8.7°
5
Windvlaag: 6.6 m/s
2%
18:00
12°
1020.1 hPa   8.7°
4
Windvlaag: 6 m/s
1%
19:00
11°
1020.1 hPa
15%
8.8°
4
Windvlaag: 5.6 m/s
8%
20:00
11°
1019.9 hPa
72%
8.8°
4
Windvlaag: 5.5 m/s
13%
21:00
11°
1019.6 hPa
72%
8.8°
4
Windvlaag: 5.2 m/s
16%
22:00
11°
1019.6 hPa
69%
8.6°
4
Windvlaag: 5 m/s
6%
23:00
11°
1019.4 hPa
75%
8.2°
4
Windvlaag: 5.2 m/s
10%
 04:44     15:48    Daglengte: 11:04 Zondag 04 Okt
00:00
11°
1019.1 hPa
77%
8.4°
4
Windvlaag: 5.4 m/s
12%
01:00
11°
1018.7 hPa
69%
8.5°
4
Windvlaag: 1.7 m/s
16%
02:00
11°
1018.3 hPa
24%
8.7°
5
Windvlaag: 1.6 m/s
26%
03:00
11°
1017.7 hPa
34%
8.9°
5
Windvlaag: 1.6 m/s
33%
04:00
11°
1017.3 hPa
73%
9.0°
5
Windvlaag: 2.2 m/s
37%
05:00
11°
1017.2 hPa
76%
9.2°
5
Windvlaag: 2.1 m/s
44%
06:00
11°
1016.9 hPa
80%
9.4°
5
Windvlaag: 1.1 m/s
51%
07:00
12°
1016.5 hPa
22%
9.6°
5
Windvlaag: 2.2 m/s
60%
08:00
12°
1016.1 hPa
36%
9.8°
5
Windvlaag: 2.1 m/s
71%
09:00
13°
1015.8 hPa
84%
9.9°
6
Windvlaag: 2.4 m/s
79%
10:00
13°
1015.5 hPa
24%
10.2°
6
Windvlaag: 3.2 m/s
84%
11:00
14°
1015.1 hPa
22%
10.3°
6
Windvlaag: 3.3 m/s
87%
12:00
14°
1014.6 hPa
24%
10.4°
6
Windvlaag: 2.3 m/s
91%
13:00
14°
1013.2 hPa
34%
10.7°
6
Windvlaag: 13.5 m/s
100%
14:00
14°
1012.8 hPa
75%
11.0°
5
Windvlaag: 15.2 m/s
100%
15:00
13°
1012.5 hPa
25%
11.4°
5
Windvlaag: 11.6 m/s
100%
16:00
13°
1012.1 hPa
22%
11.7°
5
Windvlaag: 12.2 m/s
99%
17:00
13°
1011.7 hPa
24%
12.1°
5
Windvlaag: 13.2 m/s
100%
Temp/Neerslag /Baro Onweer/Dauwpunt
    Temp Baro Neerslag Dauwpunt Wind Bewolking  
 04:37     15:57    Daglengte: 11:20 Vandaag
21:00
11°
1019.2 hPa   8.3°
3
78%
 04:39     15:54    Daglengte: 11:15 Morgen
00:00
10°
Voelt als: 8.3°
1019.3 hPa   8.7°
3
24%
03:00
Voelt als: 7.6°
1019.5 hPa   8.4°
3
50%
06:00
10°
Voelt als: 8.0°
1020.4 hPa   8.6°
3
20%
09:00
14°
1021.1 hPa   8.9°
4
32%
12:00
16°
1020.9 hPa   8.2°
4
9%
15:00
15°
1021.0 hPa   7.6°
4
13%
18:00
11°
1021.8 hPa   7.1°
4
4%
21:00
10°
1022.3 hPa   7.8°
4
1%
 04:42     15:51    Daglengte: 11:09 Zaterdag 03 Okt
00:00
Voelt als: 7.7°
1022.0 hPa   7.9°
3
0%
03:00
Voelt als: 7.0°
1021.6 hPa   7.8°
3
18%
06:00
10°
Voelt als: 7.5°
1021.3 hPa   8.1°
4
3%
09:00
14°
1021.4 hPa   9.0°
5
10%
12:00
16°
1020.7 hPa   8.5°
5
12%
15:00
14°
1020.0 hPa   8.8°
5
13%
18:00
12°
1020.1 hPa   8.7°
4
1%
21:00
11°
1019.6 hPa   8.8°
4
16%
 04:44     15:48    Daglengte: 11:04 Zondag 04 Okt
00:00
11°
1019.1 hPa   8.4°
4
12%
03:00
11°
1017.7 hPa   8.9°
5
33%
06:00
11°
1016.9 hPa   9.4°
5
51%
09:00
13°
1015.8 hPa   9.9°
6
79%
12:00
14°
1014.6 hPa   10.4°
6
91%
15:00
13°
1012.5 hPa   11.4°
5
100%
18:00
13°
1011.2 hPa   12.5°
5
100%
21:00
13°
1011.7 hPa 0.3 mm 12.2°
5
92%
 04:47     15:45    Daglengte: 10:58 Maandag 05 Okt
00:00
13°
1011.7 hPa 0.3 mm 12.2°
5
92%
03:00
13°
1011.2 hPa 0.3 mm 12.2°
4
92%
06:00
13°
1010.8 hPa 0.3 mm 12.3°
3
92%
09:00
14°
1011.2 hPa 0.3 mm 12.5°
3
83%
12:00
15°
1011.4 hPa 0.3 mm 12.6°
3
75%
15:00
14°
1011.0 hPa 0.3 mm 12.5°
3
83%
18:00
13°
1010.7 hPa 0.3 mm 12.3°
3
92%
21:00
13°
1009.4 hPa 0.3 mm 12.6°
2
92%
 04:49     15:42    Daglengte: 10:53 Dinsdag 06 Okt
00:00
13°
1008.1 hPa 0.4 mm 12.8°
2
92%
03:00
13°
1006.9 hPa 1.0 mm 12.4°
3
92%
06:00
12°
1005.7 hPa 1.9 mm 12.0°
4
92%
09:00
14°
1006.3 hPa 3.6 mm 12.7°
4
92%
12:00
15°
1007.0 hPa 5.4 mm 13.4°
4
91%
15:00
14°
1006.7 hPa 6.8 mm 13.2°
4
92%
18:00
14°
1006.5 hPa 6.8 mm 13.1°
4
92%
21:00
13°
1007.5 hPa 6.9 mm 12.6°
3
92%
 04:52     15:39    Daglengte: 10:47 Woensdag 07 Okt
00:00
12°
1008.5 hPa 6.9 mm 12.1°
2
92%
03:00
12°
1008.9 hPa 6.9 mm 11.7°
2
92%
06:00
12°
1009.3 hPa 6.9 mm 11.4°
3
92%
09:00
13°
1009.8 hPa 7.3 mm 11.3°
3
91%
12:00
14°
1010.2 hPa 8.1 mm 11.1°
3
89%
15:00
13°
1010.3 hPa 8.5 mm 11.3°
3
89%
18:00
12°
1010.4 hPa 8.5 mm 11.4°
3
89%
21:00
12°
1010.9 hPa 8.5 mm 11.0°
2
90%
 04:54     15:36    Daglengte: 10:42 Donderdag 08 Okt
00:00
11°
1011.4 hPa 8.5 mm 10.6°
2
91%
03:00
11°
1011.8 hPa 8.7 mm 10.7°
2
91%
06:00
11°
1012.3 hPa 9.4 mm 10.8°
3
92%
09:00
13°
1012.5 hPa 9.5 mm 10.9°
3
90%
12:00
14°
1012.7 hPa 9.9 mm 11.0°
4
88%
15:00
12°
1013.5 hPa 10.2 mm 10.9°
3
86%
18:00
11°
1014.3 hPa 20.5 mm 10.6°
2
85%
 04:56     15:33    Daglengte: 10:37 Vrijdag 09 Okt
00:00
10°
1014.2 hPa 20.5 mm 10.1°
2
91%
06:00
10°
1015.6 hPa 20.9 mm 9.8°
2
91%
12:00
13°
1013.6 hPa 22.1 mm 9.9°
4
90%
18:00
11°
1012.4 hPa 29.7 mm 9.7°
2
84%
 04:59     15:30    Daglengte: 10:31 Zaterdag 10 Okt
00:00
Voelt als: 7.5°
1012.1 hPa 35.3 mm 8.2°
2
87%
06:00
Voelt als: 7.3